Regional Weather Roundup
Issued by NWS

Home | Current Version | Previous Version | Graphics & Text | Print | Product List | Glossary Off
Versions: 1 2 3 4 5 6 7 8 9 10 11 12 13 14 15 16 17 18 19 20 21 22 23 24 25 26 27 28 29 30 31 32 33 34 35 36 37 38 39 40 41 42 43 44 45 46 47 48 49 50

000
ASUS43 KMKX 131121
RWRWI

WISCONSIN REGIONAL WEATHER ROUNDUP
NATIONAL WEATHER SERVICE MILWAUKEE/SULLIVAN WI
600 AM CDT SUN JUL 13 2014

NOTE: "FAIR" INDICATES FEW OR NO CLOUDS BELOW 12,000 FEET WITH NO
SIGNIFICANT WEATHER AND/OR OBSTRUCTIONS TO VISIBILITY.

WIZ001-002-006>008-014>016-023>028-131200-
NORTHWEST WISCONSIN

CITY           SKY/WX    TMP DP  RH WIND       PRES   REMARKS
SUPERIOR ARPT  CLEAR     53  50  90 NW7       29.90R
ASHLAND        CLEAR     52  50  93 SW6       29.89R
HAYWARD        CLEAR     56  53  90 CALM      29.92R
SIREN          CLEAR     55  52  92 CALM      29.93S
RICE LAKE      CLEAR     57  54  88 W3        29.94R
LADYSMITH      PTCLDY    60  57  89 W12       29.92R
EAU CLAIRE     PTCLDY    63  62  97 W5        29.90R
MENOMONIE      SUNNY     62  60  91 NW7       29.93R
NEW RICHMOND   CLEAR     58  56  94 NW3       29.94R
OSCEOLA        CLEAR     59  57  94 CALM      29.96R
$$

WIZ003>005-009-010-017-018-131200-
NORTH CENTRAL WISCONSIN

CITY           SKY/WX    TMP DP  RH WIND       PRES   REMARKS
WOODRUFF       CLOUDY    62  58  88 NW7       29.86R
RHINELANDER    CLOUDY    60  59  96 W6        29.87R
EAGLE RIVER    CLOUDY    60  58  92 W7        29.84R
LAND O LAKES   CLOUDY    60  53  77 NW10G17   29.85R
PHILLIPS       MOCLDY    58  56  92 W3        29.89R
TOMAHAWK       CLOUDY    60  59  95 W5        29.88R
MEDFORD        CLOUDY    62  61  97 W8        29.89R
MERRILL        CLOUDY    63  62  98 W8        29.87R
$$

WIZ029-030-035-036-043>047-131200-
CENTRAL WISCONSIN

CITY           SKY/WX    TMP DP  RH WIND       PRES   REMARKS
WAUSAU         CLEAR     63  61  93 W9        29.86R
MOSINEE        CLOUDY    63  63 100 W8        29.89R FOG
MARSHFIELD     FOG       63  62  97 W6        29.89R VSB 1/2
STEVENS POINT  CLOUDY    61  60  97 W7        29.89R FOG
WAUPACA        PTCLDY    65  62  93 W5        29.88S FOG
WAUTOMA        CLOUDY    64  63  97 W6        29.90R
WISC RAPIDS    CLOUDY    63  62  97 W7        29.90S FOG
CAMP DOUGLAS   FOG       57  57 100 CALM      29.91R VSB 1
$$

WIZ011>013-019>022-031-037>040-048>050-131200-
NORTHEAST WISCONSIN

CITY           SKY/WX    TMP DP  RH WIND       PRES   REMARKS
ANTIGO         CLOUDY    61  60  97 W9        29.87R
STURGEON BAY   CLEAR     63  59  88 W10       29.83R
GREEN BAY      MOCLDY    63  62  97 SW5       29.86R
MANITOWOC      PTCLDY    65  62  90 W10       29.85R
APPLETON       CLOUDY    63  61  94 W8        29.87S
CLINTONVILLE   PTCLDY    63  61  94 W7        29.86R
OSHKOSH        CLOUDY    64  62  93 W7        29.88R
$$

WIZ032>034-041-042-053>061-131200-
SOUTHWEST WISCONSIN

CITY           SKY/WX    TMP DP  RH WIND       PRES   REMARKS
LA CROSSE      CLEAR     64  63  96 S6        29.91S
SPARTA         CLOUDY    60  60  98 CALM      29.92S FOG
VIROQUA        CLOUDY    64  64 100 W5        29.94S VSB<1/4
BOSCOBEL       CLOUDY    66  64  93 SW5       29.94R
PRAIRIE DU CHI MOCLDY    64  62  92 CALM      29.95R
PLATTEVILLE    CLOUDY    64  64  97 W7        29.97R
$$

WIZ056-057-062-063-064-067-068-131200-
SOUTH CENTRAL WISCONSIN

CITY           SKY/WX    TMP DP  RH WIND       PRES   REMARKS
BARABOO/DELLS  CLEAR     60  58  95 CALM      29.92R FOG
LONE ROCK      CLOUDY    68  64  87 W9        29.93S
WATERTOWN      CLOUDY    63  62  98 W5        29.91S
MADISON        CLOUDY    65  62  90 VRB3      29.92R
MIDDLETON      CLOUDY    65  65 100 W8        29.93S
MONROE         CLOUDY    63  61  94 W8        29.95R FOG
JANESVILLE     CLOUDY    64  63  94 NW8       29.93R
$$

WIZ051-052-058>065-066-070>072-131200-
SOUTHEAST WISCONSIN

CITY           SKY/WX    TMP DP  RH WIND       PRES   REMARKS
MILWAUKEE      MOCLDY    65  62  90 W7        29.90R
WAUKESHA       CLOUDY    63  61  94 W12       29.92R FOG
MILWAUKEE/TIMM PTCLDY    63  59  88 W10G16    29.90R
RACINE         PTCLDY    65  63  93 W7        29.91R
BURLINGTON     CLOUDY    62  62  98 W7        29.92R FOG
KENOSHA        PTCLDY    64  63  96 W6        29.90R
FOND DU LAC    MOCLDY    63  61  93 SW7       29.89R
SHEBOYGAN      CLEAR     63  61  93 W8        29.87R
WEST BEND      PTCLDY    63  59  88 W13       29.89R
JUNEAU         CLOUDY    63  48  59 SW7       29.92R
$$

LSZ147-162-131200-
LAKE SUPERIOR

STATION/POSITION TIME  TEMP    WIND        PRES    WAVE
                       AIR SEA DIR/SP/G            HT/PER
                 (UTC) (F)     (DEG/KT/KT) (MB)    (FT/S)
W MID LAKE BUOY  1050   45 38  270/ 10/ 12 1009.8R   1/ 3
PORT WING        1040   56     270/  9/ 12 1012.2R
SAXON HARBOR     1000          250/  3/  7 1011.2R
$$

LMZ867-665-643>646-131200-
LAKE MICHIGAN

STATION/POSITION TIME  TEMP    WIND        PRES    WAVE
                       AIR SEA DIR/SP/G            HT/PER
                 (UTC) (F)     (DEG/KT/KT) (MB)    (FT/S)
N MID LAKE BUOY  1050   61 58  230/ 10/ 12 1007.5R   1/ 4
NORTHPORT PIER   1000   64     270/  4/  9 1008.1S
SISTER BAY       0855   64     310/ 11/ 14   N/A
KEWAUNEE LAKESHO 1100   63     280/  6/ 10 1010.8R
SHEBOYGAN LAKESH 1100   66     270/  8/ 11 1011.1R
PORT WASHINGTON  1000   65     280/  6/ 12 1011.9R
MILWAUKEE LAKESH 1100   65     290/  8/ 10   N/A
S MID LAKE BUOY  1050   65 64  290/  8/ 10 1011.7R   2/ 4
KENOSHA   LAKESH 1100   66     290/  9/ 12   N/A
$$

TC  - TEMPERATURE IN CELSIUS
VSB - VISIBILITY IN STATUTE MILES
WCI - WIND CHILL INDEX
HX  - HEAT INDEX



USA.gov is the U.S. government's official web portal to all federal, state and local government web resources and services.